• In Hungary
  • List of Countries
  • For 7 days
  • Water Temperature
  • Satellite Maps
  • Weather Map
  • News
  • Weather Widgets
  • user-avatar
    Login

    Hourly Weather Midlothian

    Today, 20 September, Thursday

    Time Temperature Precipitation Wind Pressure Humidity
    00:00 +6°C° 0 mm 10 mps 728 mmHg 72%
    01:00 +6°C° 0 mm 10 mps 728 mmHg 74%
    02:00 +5°C° 0 mm 9 mps 729 mmHg 75%
    03:00 +5°C° 0 mm 9 mps 729 mmHg 77%
    04:00 +5°C° 0 mm 9 mps 729 mmHg 78%
    05:00 +5°C° 0 mm 9 mps 729 mmHg 80%
    06:00 +5°C° 0 mm 8 mps 729 mmHg 82%
    07:00 +6°C° 0 mm 9 mps 730 mmHg 79%
    08:00 +7°C° 0 mm 9 mps 730 mmHg 76%
    09:00 +8°C° 0 mm 9 mps 730 mmHg 73%
    10:00 +9°C° 0 mm 8 mps 730 mmHg 70%
    11:00 +10°C° 0 mm 7 mps 730 mmHg 68%
    12:00 +11°C° 0 mm 7 mps 730 mmHg 65%
    13:00 +10°C° 0 mm 5 mps 729 mmHg 68%
    14:00 +11°C° 0 mm 4 mps 728 mmHg 71%
    15:00 +10°C° 0 mm 3 mps 728 mmHg 75%
    16:00 +9°C° 0.3 mm 2 mps 727 mmHg 79%
    17:00 +9°C° 0.3 mm 2 mps 726 mmHg 84%
    18:00 +8°C° 0.3 mm 2 mps 725 mmHg 89%
    19:00 +7°C° 1 mm 2 mps 724 mmHg 90%
    20:00 +7°C° 1 mm 3 mps 723 mmHg 92%
    21:00 +7°C° 1 mm 3 mps 722 mmHg 93%
    22:00 +5°C° 1.5 mm 4 mps 721 mmHg 93%
    23:00 +5°C° 1.5 mm 5 mps 721 mmHg 94%

    Tomorrow, 21 September, Friday

    Time Temperature Precipitation Wind Pressure Humidity
    00:00 +4°C° 1.5 mm 6 mps 720 mmHg 94%
    01:00 +4°C° 1.4 mm 6 mps 720 mmHg 93%
    02:00 +4°C° 1.4 mm 7 mps 720 mmHg 92%
    03:00 +4°C° 1.4 mm 7 mps 720 mmHg 91%
    04:00 +3°C° 0 mm 7 mps 721 mmHg 91%
    05:00 +3°C° 0 mm 7 mps 721 mmHg 90%
    06:00 +3°C° 0 mm 7 mps 722 mmHg 90%
    07:00 +4°C° 0 mm 7 mps 722 mmHg 88%
    08:00 +5°C° 0 mm 7 mps 723 mmHg 85%
    09:00 +6°C° 0 mm 8 mps 723 mmHg 83%
    10:00 +8°C° 0.1 mm 7 mps 724 mmHg 79%
    11:00 +9°C° 0.1 mm 7 mps 725 mmHg 74%
    12:00 +10°C° 0.1 mm 7 mps 726 mmHg 70%
    13:00 +10°C° 0.2 mm 6 mps 727 mmHg 71%
    14:00 +10°C° 0.2 mm 6 mps 728 mmHg 72%
    15:00 +10°C° 0.2 mm 6 mps 729 mmHg 73%
    16:00 +9°C° 0.1 mm 6 mps 730 mmHg 76%
    17:00 +8°C° 0.1 mm 6 mps 730 mmHg 79%
    18:00 +7°C° 0.1 mm 6 mps 731 mmHg 81%
    19:00 +5°C° 0 mm 6 mps 732 mmHg 83%
    20:00 +4°C° 0 mm 7 mps 732 mmHg 84%
    21:00 +4°C° 0 mm 7 mps 733 mmHg 86%
    22:00 +4°C° 0 mm 7 mps 733 mmHg 86%
    23:00 +4°C° 0 mm 7 mps 733 mmHg 87%

    Day after tomorrow, 22 September, Saturday

    Time Temperature Precipitation Wind Pressure Humidity
    00:00 +4°C° 0 mm 7 mps 733 mmHg 87%
    01:00 +4°C° 0 mm 7 mps 734 mmHg 87%
    02:00 +4°C° 0 mm 7 mps 734 mmHg 86%
    03:00 +4°C° 0 mm 8 mps 735 mmHg 86%
    04:00 +4°C° 0 mm 7 mps 735 mmHg 87%
    05:00 +4°C° 0 mm 7 mps 735 mmHg 87%
    06:00 +4°C° 0 mm 7 mps 735 mmHg 88%
    07:00 +5°C° 0 mm 7 mps 736 mmHg 84%
    08:00 +6°C° 0 mm 7 mps 736 mmHg 80%
    09:00 +8°C° 0 mm 7 mps 737 mmHg 77%
    10:00 +8°C° 0.1 mm 6 mps 737 mmHg 74%
    11:00 +9°C° 0.1 mm 6 mps 738 mmHg 72%
    12:00 +10°C° 0.1 mm 6 mps 738 mmHg 70%
    13:00 +9°C° 0.1 mm 6 mps 738 mmHg 70%
    14:00 +9°C° 0.1 mm 6 mps 738 mmHg 70%
    15:00 +9°C° 0.1 mm 5 mps 738 mmHg 71%
    16:00 +8°C° 0 mm 5 mps 738 mmHg 74%
    17:00 +7°C° 0 mm 4 mps 738 mmHg 77%
    18:00 +6°C° 0 mm 4 mps 738 mmHg 80%
    19:00 +5°C° 0 mm 3 mps 738 mmHg 81%
    20:00 +4°C° 0 mm 3 mps 739 mmHg 83%
    21:00 +3°C° 0 mm 3 mps 739 mmHg 85%
    22:00 +4°C° 0 mm 2 mps 738 mmHg 85%
    23:00 +4°C° 0 mm 2 mps 738 mmHg 85%

    23 September, Sunday

    Time Temperature Precipitation Wind Pressure Humidity
    00:00 +4°C° 0 mm 2 mps 738 mmHg 84%
    01:00 +4°C° 0 mm 2 mps 737 mmHg 84%
    02:00 +3°C° 0 mm 3 mps 737 mmHg 84%
    03:00 +4°C° 0 mm 4 mps 736 mmHg 84%
    04:00 +3°C° 0.1 mm 5 mps 736 mmHg 85%
    05:00 +3°C° 0.1 mm 6 mps 735 mmHg 86%
    06:00 +3°C° 0.1 mm 6 mps 735 mmHg 87%
    07:00 +4°C° 0.3 mm 7 mps 734 mmHg 85%
    08:00 +4°C° 0.3 mm 8 mps 734 mmHg 83%
    09:00 +3°C° 0.3 mm 9 mps 734 mmHg 81%
    10:00 +5°C° 0.1 mm 9 mps 735 mmHg 79%
    11:00 +5°C° 0.1 mm 9 mps 735 mmHg 76%
    12:00 +5°C° 0.1 mm 10 mps 735 mmHg 73%
    13:00 +6°C° 0 mm 10 mps 736 mmHg 68%
    14:00 +6°C° 0 mm 10 mps 737 mmHg 63%
    15:00 +7°C° 0 mm 10 mps 737 mmHg 59%
    16:00 +6°C° 0 mm 9 mps 738 mmHg 62%
    17:00 +5°C° 0 mm 8 mps 739 mmHg 64%
    18:00 +4°C° 0 mm 7 mps 740 mmHg 67%
    19:00 +3°C° 0 mm 6 mps 741 mmHg 70%
    20:00 +2°C° 0 mm 6 mps 742 mmHg 72%
    21:00 +2°C° 0 mm 6 mps 743 mmHg 75%
    22:00 +1°C° 0 mm 6 mps 744 mmHg 79%
    23:00 +1°C° 0 mm 5 mps 744 mmHg 82%

    24 September, Monday

    Time Temperature Precipitation Wind Pressure Humidity
    00:00 0°C° 0 mm 5 mps 745 mmHg 86%
    01:00 +1°C° 0 mm 5 mps 746 mmHg 86%
    02:00 +1°C° 0 mm 5 mps 746 mmHg 86%
    03:00 +1°C° 0 mm 5 mps 746 mmHg 86%
    04:00 +1°C° 0 mm 5 mps 747 mmHg 86%
    05:00 +2°C° 0 mm 5 mps 747 mmHg 86%
    06:00 +2°C° 0 mm 6 mps 747 mmHg 86%
    07:00 +4°C° 0 mm 6 mps 748 mmHg 81%
    08:00 +5°C° 0 mm 7 mps 748 mmHg 76%
    09:00 +7°C° 0 mm 8 mps 748 mmHg 71%
    10:00 +7°C° 0 mm 8 mps 748 mmHg 70%
    11:00 +8°C° 0 mm 9 mps 749 mmHg 69%
    12:00 +10°C° 0 mm 9 mps 749 mmHg 68%
    13:00 +10°C° 0 mm 9 mps 749 mmHg 70%
    14:00 +9°C° 0 mm 8 mps 749 mmHg 73%
    15:00 +9°C° 0 mm 8 mps 749 mmHg 75%
    16:00 +9°C° 0 mm 7 mps 749 mmHg 78%
    17:00 +8°C° 0 mm 7 mps 749 mmHg 82%
    18:00 +8°C° 0 mm 6 mps 749 mmHg 85%
    19:00 +7°C° 0 mm 6 mps 749 mmHg 88%
    20:00 +5°C° 0 mm 6 mps 750 mmHg 90%
    21:00 +5°C° 0 mm 6 mps 750 mmHg 93%
    22:00 +5°C° 0 mm 6 mps 750 mmHg 93%
    23:00 +6°C° 0 mm 5 mps 750 mmHg 94%

    25 September, Tuesday

    Time Temperature Precipitation Wind Pressure Humidity
    00:00 +6°C° 0 mm 5 mps 750 mmHg 94%
    01:00 +6°C° 0 mm 5 mps 750 mmHg 95%
    02:00 +5°C° 0 mm 5 mps 750 mmHg 95%
    03:00 +5°C° 0 mm 5 mps 750 mmHg 96%
    04:00 +6°C° 0 mm 5 mps 750 mmHg 95%
    05:00 +6°C° 0 mm 5 mps 750 mmHg 94%
    06:00 +6°C° 0 mm 5 mps 750 mmHg 94%
    07:00 +7°C° 0 mm 6 mps 750 mmHg 89%
    08:00 +7°C° 0 mm 6 mps 750 mmHg 85%
    09:00 +8°C° 0 mm 6 mps 749 mmHg 81%
    10:00 +9°C° 0 mm 7 mps 749 mmHg 76%
    11:00 +10°C° 0 mm 7 mps 749 mmHg 72%
    12:00 +10°C° 0 mm 7 mps 749 mmHg 68%
    13:00 +10°C° 0 mm 7 mps 748 mmHg 67%
    14:00 +10°C° 0 mm 8 mps 747 mmHg 66%
    15:00 +10°C° 0 mm 8 mps 747 mmHg 65%
    16:00 +10°C° 0 mm 7 mps 746 mmHg 69%
    17:00 +9°C° 0 mm 7 mps 746 mmHg 74%
    18:00 +8°C° 0 mm 7 mps 745 mmHg 78%
    19:00 +8°C° 0 mm 7 mps 745 mmHg 80%
    20:00 +9°C° 0 mm 7 mps 745 mmHg 82%
    21:00 +9°C° 0 mm 7 mps 744 mmHg 84%
    22:00 +9°C° 0 mm 8 mps 744 mmHg 84%
    23:00 +9°C° 0 mm 8 mps 744 mmHg 84%
    Show more